CAPE
0 0 0 0 0 0 0 0 0 0 0 0 0 0 0 0 1219 1991 1725 1146 1127 2115 2122 1610 2492 2719 2756 2475 2127 1810 1771 1812 1894 1805 1653 1363 1399 1660 1766 1966 1476 1264 1098 1044 890 708 583 516 422
0 0 0 0 0 0 0 0 0 0 0 0 0 0 0 0 1405 2137 1419 1075 1513 2232 2155 1424 2436 2620 2671 2432 2097 1913 1900 1942 1937 1792 1615 1346 1415 1626 1736 1867 1393 840 675 771 640 457 377 402 412
0 0 0 0 0 0 0 0 0 0 0 0 0 0 0 0 1451 2341 1787 1229 1968 2404 2123 1876 2473 2528 2592 2489 2191 1996 1993 2019 1836 1756 1647 1420 1418 1656 1802 1914 1522 839 503 363 369 279 289 316 291
0 0 0 0 0 0 0 0 9 0 0 0 0 0 0 0 1495 2446 1490 1345 2097 2185 1899 1790 2284 2387 2430 2453 2323 2199 2073 1975 1818 1752 1608 1472 1525 1690 1768 1824 1569 773 399 404 353 297 333 378 299
0 0 0 0 0 0 0 0 0 0 0 0 0 0 0 50 1078 1783 1315 1669 1855 1611 2199 1581 2171 2273 2342 2353 2271 2174 2063 1877 1759 1700 1610 1551 1642 1730 1761 1772 1491 968 515 541 514 464 476 489 331
0 0 0 0 0 0 0 0 0 0 0 0 0 0 0 3 441 1528 1659 2054 1886 1620 2333 1211 1949 2120 2122 2203 2111 2009 1892 1808 1720 1609 1583 1583 1667 1672 1676 1619 1526 1426 1036 918 707 695 603 668 599
0 0 0 0 0 0 0 0 0 0 0 0 0 0 0 0 29 1933 2010 2187 1943 2000 1885 1156 525 1374 1981 1946 1857 1785 1691 1635 1551 1458 1441 1524 1639 1620 1615 1640 1595 1436 1216 1081 1122 850 676 511 468
0 0 0 0 0 0 0 0 0 0 0 0 0 0 0 0 640 2161 2415 2415 2093 2235 1746 1117 501 370 358 913 1742 1590 1509 1437 1337 1372 1433 1458 1576 1638 1625 1517 1642 1619 1222 1094 1077 922 876 686 563
0 0 0 0 0 0 0 0 0 0 0 0 0 0 0 523 628 1663 2678 2597 2412 2275 2027 1221 662 319 169 196 806 1340 1273 1310 1244 1276 1421 945 64 517 706 510 1584 1707 1192 970 863 789 793 582 366
0 0 0 0 0 0 0 0 0 0 0 0 0 0 0 0 593 816 2430 2914 2673 2377 2192 1422 1164 584 371 355 714 292 232 211 184 143 348 85 74 198 75 356 1665 1308 1010 800 660 547 438 225 7
0 0 0 0 0 0 0 0 0 0 0 0 0 0 0 155 498 835 1261 2354 2689 2465 2255 1719 1966 1898 1046 677 821 445 478 325 279 284 404 466 274 464 144 431 735 769 730 287 172 66 21 1 1
0 0 0 0 0 0 0 0 0 0 0 0 0 0 64 718 504 731 933 1451 2538 2458 2385 2343 2378 2055 2470 1052 1148 717 781 683 687 709 820 943 674 843 630 277 552 445 355 157 56 0 10 0 4
0 0 0 0 0 0 0 0 0 0 0 0 0 0 0 0 605 804 1422 1422 2304 2527 2787 2755 3444 3918 3301 3343 1769 1396 1249 1116 1260 1234 1390 1167 1272 1277 1009 598 413 295 163 257 105 55 80 73 164
0 0 0 0 0 0 0 0 0 0 0 0 0 0 0 0 4 1000 1673 1977 2355 2702 3068 3020 3213 3773 2938 3001 3610 2386 2634 2035 1686 1577 1646 1708 1700 1874 1179 1075 765 412 266 268 612 262 273 303 233
0 0 0 0 0 0 0 0 0 0 0 0 0 0 0 0 0 879 1679 2497 2505 2854 3325 3603 3475 3429 3684 3532 3237 2615 2282 2216 1945 1799 2167 1982 2025 2041 1746 1262 1007 733 579 625 1087 1052 1665 1621 1650
0 0 0 0 0 0 0 0 0 0 0 0 0 0 0 0 0 134 1796 2576 3037 3020 3680 3823 3444 3664 3956 4199 3998 3152 3015 2519 2842 2087 2431 2079 2642 2377 2351 1629 1637 1355 2673 2009 1811 1658 1794 1447 1483
0 0 0 0 0 0 0 0 0 0 0 0 0 0 0 0 0 0 2396 2913 3137 3535 4256 4135 3873 3721 3846 3950 3951 3753 4184 2959 3247 3013 2221 2497 2297 1887 2188 2533 2188 1215 516 0 0 0 18 443 523
0 0 0 0 0 0 0 0 0 0 0 0 0 0 0 0 0 0 676 2461 2488 3277 4340 4905 4526 4538 3773 3759 3709 3196 2881 3017 3873 3854 2537 2348 2504 2035 2303 1382 1036 545 34 94 30 8 14 4 99
0 0 0 0 0 0 0 0 0 0 0 0 0 0 0 0 0 0 0 1392 2788 3389 4129 5283 4697 4921 4073 3754 3234 3290 3391 3209 2704 3123 3035 2722 2350 1920 1678 1129 434 282 0 0 0 0 22 53 91
0 0 0 0 0 0 0 0 0 0 0 0 0 0 0 0 0 0 0 106 1274 2665 3802 3940 4140 4645 4304 3502 3455 3665 3420 3481 3465 3134 2803 2072 1961 1757 1217 782 299 11 0 0 0 6 150 347 627
0 0 0 0 0 0 0 0 0 0 0 0 0 0 0 0 0 0 0 0 34 1341 2748 3596 3417 4326 3869 3941 3737 3807 3433 3351 2830 2824 1632 1666 1485 1332 1175 722 276 125 33 0 0 0 409 604 484
5 0 0 0 1 1 0 0 0 0 0 0 0 0 0 0 0 0 0 0 39 371 1611 2744 3395 3546 3602 3963 4019 3997 3518 2990 3259 2820 2267 1834 1367 846 749 502 205 7 0 81 141 454 739 360 439
10 12 8 0 8 14 9 0 0 0 0 0 0 0 0 0 0 0 0 0 0 75 862 2544 3380 2949 3373 3616 3865 3856 3150 3776 3332 2093 1539 916 450 207 391 650 746 751 558 601 444 224 6 141 14
81 28 36 50 38 152 12 0 0 0 0 0 0 0 0 0 0 0 0 0 0 0 795 2843 3083 2979 3236 3243 3398 3442 2973 2803 2081 1213 1173 716 675 363 237 188 316 340 247 108 2 0 0 0 0
101 142 118 75 111 76 10 2 0 0 0 0 0 0 0 0 0 0 0 0 7 889 2502 2134 2250 2237 3004 1577 1180 2124 1522 1376 548 569 229 141 285 255 235 284 291 64 1 0 0 0 0 0 0
114 134 153 132 117 58 4 0 0 0 0 0 0 0 0 0 0 0 0 867 1422 1705 1559 1013 1206 1267 1673 1273 967 1016 990 717 320 142 17 2 36 154 50 12 2 0 0 0 0 0 0 0 0
64 230 180 160 110 143 7 2 0 0 0 0 0 0 0 0 0 45 1191 1244 940 729 869 820 1064 1247 1156 1038 622 427 256 140 79 47 11 5 0 0 6 0 0 0 0 0 0 0 0 4 7
80 155 244 189 142 95 58 34 0 0 0 0 0 0 0 0 570 816 744 630 574 775 1158 1031 1298 1139 734 405 249 84 55 30 20 5 0 0 0 0 0 0 0 0 0 0 1 0 1 3 4
255 234 190 159 73 142 70 206 3 25 0 0 0 284 657 747 536 408 518 781 1175 1115 1135 1149 719 542 343 202 52 32 7 2 0 0 0 0 0 0 0 0 0 0 0 1 4 8 2 7 18
305 86 337 362 205 136 74 113 41 46 6 31 1010 540 220 224 424 573 701 630 611 587 467 450 352 184 108 48 35 12 4 1 0 0 0 0 0 0 0 0 0 0 0 2 7 12 16 16 18
CIN
-0 -0 -0 -0 -0 -0 -0 -0 -0 -0 -0 -0 -0 -0 -0 -0 -1 -16 -60 -113 -128 -232 -319 -397 -247 -173 -127 -121 -132 -143 -130 -103 -75 -66 -59 -80 -46 -13 -2 -0 -0 -4 -11 -10 -17 -36 -60 -72 -98
-0 -0 -0 -0 -0 -0 -0 -0 -0 -0 -0 -0 -0 -0 -0 -0 -1 -41 -66 -103 -148 -264 -313 -365 -245 -176 -135 -133 -138 -128 -99 -74 -55 -54 -55 -63 -34 -9 -2 -0 -1 -50 -62 -31 -53 -76 -92 -85 -73
-0 -0 -0 -0 -0 -0 -0 -0 -0 -0 -0 -0 -0 -0 -0 -0 -3 -5 -67 -116 -157 -245 -290 -309 -228 -179 -139 -128 -124 -117 -84 -54 -52 -45 -40 -51 -33 -6 -0 -0 -0 -57 -124 -143 -117 -116 -100 -90 -96
-0 -0 -0 -0 -0 -0 -0 -0 -0 -0 -0 -0 -0 -0 -0 -0 -3 -1 -111 -121 -172 -205 -237 -356 -235 -192 -143 -112 -96 -85 -70 -57 -48 -34 -30 -29 -15 -3 -0 -0 -0 -34 -132 -133 -141 -137 -107 -86 -99
-0 -0 -0 -0 -0 -0 -0 -0 -0 -0 -0 -0 -0 -0 -0 -47 -29 -62 -96 -98 -153 -186 -174 -319 -226 -188 -143 -106 -82 -80 -62 -53 -46 -22 -12 -9 -0 -0 -0 -0 -0 -15 -87 -81 -91 -95 -85 -76 -104
-0 -0 -0 -0 -0 -0 -0 -0 -0 -0 -0 -0 -0 -0 -0 -2 -52 -52 -52 -53 -90 -132 -158 -335 -234 -192 -165 -124 -103 -77 -67 -62 -41 -28 -17 -7 -1 -0 -0 -2 -1 -1 -16 -28 -63 -56 -70 -55 -60
-0 -0 -0 -0 -0 -0 -0 -0 -0 -0 -0 -0 -0 -0 -0 -0 -4 -16 -43 -34 -62 -89 -177 -304 -395 -279 -164 -143 -139 -114 -103 -84 -72 -61 -41 -22 -4 -0 -1 -0 -0 -0 -5 -7 -4 -17 -40 -71 -78
-0 -0 -0 -0 -0 -0 -0 -0 -0 -0 -0 -0 -0 -0 -0 -0 -1 -0 -5 -2 -30 -60 -143 -244 -343 -377 -377 -262 -106 -122 -102 -93 -75 -50 -34 -23 -5 -0 -0 -0 -0 -0 -0 -1 -1 -6 -10 -25 -51
-0 -0 -0 -0 -0 -0 -0 -0 -0 -0 -0 -0 -0 -0 -0 -10 -7 -0 -0 -0 -0 -25 -89 -171 -240 -333 -352 -342 -238 -123 -113 -77 -63 -37 -17 -54 -244 -83 -32 -53 -15 -0 -0 -0 -1 -3 -2 -19 -59
-0 -0 -0 -0 -0 -0 -0 -0 -0 -0 -0 -0 -0 -0 -0 -0 -13 -3 -0 -0 -0 -13 -56 -115 -192 -243 -246 -240 -218 -284 -284 -274 -272 -261 -184 -272 -237 -146 -162 -78 -12 -4 -0 -1 -5 -14 -26 -61 -209
-0 -0 -0 -0 -0 -0 -0 -0 -0 -0 -0 -0 -0 -0 -0 -57 -32 -0 -0 -0 -0 -4 -29 -57 -102 -85 -107 -130 -167 -200 -189 -211 -211 -204 -155 -119 -140 -52 -111 -46 -3 -0 -15 -35 -101 -158 -206 -137 -226
-0 -0 -0 -0 -0 -0 -0 -0 -0 -0 -0 -0 -0 -0 -9 -3 -7 -7 -1 -0 -1 -0 -21 -13 -54 -58 -4 -51 -80 -108 -83 -87 -72 -50 -30 -8 -11 -0 -0 -17 -0 -1 -1 -22 -53 -0 -14 -9 -103
-0 -0 -0 -0 -0 -0 -0 -0 -0 -0 -0 -0 -0 -0 -0 -0 -15 -3 -0 -1 -0 -0 -2 -15 -12 -0 -0 -0 -19 -23 -15 -20 -6 -0 -0 -6 -0 -0 -0 -0 -3 -9 -11 -4 -6 -30 -34 -44 -4
-0 -0 -0 -0 -0 -0 -0 -0 -0 -0 -0 -0 -0 -0 -0 -0 -3 -0 -0 -1 -1 -0 -0 -16 -16 -3 -12 -2 -0 -1 -0 -1 -0 -0 -0 -0 -0 -0 -0 -0 -0 -1 -0 -1 -4 -2 -5 -1 -4
-0 -0 -0 -0 -0 -0 -0 -0 -0 -0 -0 -0 -0 -0 -0 -0 -0 -0 -0 -0 -1 -0 -0 -9 -6 -11 -3 -0 -0 -0 -0 -0 -0 -1 -0 -0 -0 -0 -0 -0 -0 -0 -1 -0 -0 -0 -0 -4 -17
-0 -0 -0 -0 -0 -0 -0 -0 -0 -0 -0 -0 -0 -0 -0 -0 -0 -10 -1 -1 -4 -0 -0 -1 -1 -5 -5 -0 -0 -0 -7 -0 -0 -0 -13 -0 -0 -0 -0 -2 -31 -89 -1 -0 -0 -0 -0 -0 -2
-0 -0 -0 -0 -0 -0 -0 -0 -0 -0 -0 -0 -0 -0 -0 -0 -0 -0 -0 -5 -4 -0 -0 -0 -0 -0 -15 -1 -0 -0 -5 -0 -4 -19 -23 -1 -1 -0 -0 -0 -0 -7 -26 -0 -0 -0 -57 -2 -11
-0 -0 -0 -0 -0 -0 -0 -0 -0 -0 -0 -0 -0 -0 -0 -0 -0 -0 -29 -0 -0 -0 -0 -0 -0 -0 -14 -1 -2 -7 -0 -2 -12 -9 -25 -3 -0 -0 -0 -29 -57 -66 -171 -97 -63 -83 -38 -89 -5
-0 -0 -0 -0 -0 -0 -0 -0 -0 -0 -0 -0 -0 -0 -0 -0 -0 -0 -0 -9 -0 -0 -0 -0 -0 -3 -0 -1 -13 -2 -0 -0 -0 -4 -0 -0 -2 -10 -19 -42 -132 -147 -1 -1 -0 -0 -87 -67 -5
-0 -0 -0 -0 -0 -0 -0 -0 -0 -0 -0 -0 -0 -0 -0 -0 -0 -0 -0 -107 -20 -0 -0 -0 -0 -0 -0 -17 -7 -1 -0 -4 -0 -0 -0 -7 -11 -18 -30 -67 -149 -278 -0 -0 -0 -56 -63 -0 -6
-0 -0 -0 -0 -0 -0 -0 -0 -0 -0 -0 -0 -0 -0 -0 -0 -0 -0 -0 -0 -292 -31 -1 -0 -11 -2 -3 -1 -0 -0 -0 -0 -0 -0 -30 -14 -23 -41 -39 -68 -130 -162 -83 -0 -0 -0 -5 -6 -12
-0 -0 -0 -0 -0 -0 -0 -0 -0 -0 -0 -0 -0 -0 -0 -0 -0 -0 -0 -0 -28 -95 -42 -0 -7 -16 -6 -0 -0 -0 -0 -0 -0 -0 -2 -2 -18 -69 -75 -95 -142 -193 -0 -57 -73 -37 -0 -8 -0
-0 -0 -0 -0 -0 -0 -0 -0 -0 -0 -0 -0 -0 -0 -0 -0 -0 -0 -0 -0 -0 -152 -34 -6 -6 -40 -15 -2 -0 -0 -0 -0 -0 -4 -8 -26 -88 -133 -91 -39 -20 -24 -12 -37 -27 -23 -78 -17 -61
-0 -0 -0 -0 -0 -0 -0 -0 -0 -0 -0 -0 -0 -0 -0 -0 -0 -0 -0 -0 -0 -44 -39 -2 -37 -37 -20 -1 -0 -0 -0 -0 -0 -21 -6 -5 -7 -61 -102 -134 -70 -55 -66 -107 -44 -0 -0 -0 -0
-0 -0 -0 -0 -0 -0 -0 -0 -0 -0 -0 -0 -0 -0 -0 -0 -0 -0 -0 -0 -30 -36 -0 -68 -79 -85 -23 -125 -189 -32 -91 -103 -192 -146 -186 -89 -0 -29 -73 -75 -55 -109 -0 -0 -0 -0 -0 -0 -0
-0 -0 -0 -0 -0 -0 -0 -0 -0 -0 -0 -0 -0 -0 -0 -0 -0 -0 -0 -28 -6 -9 -67 -190 -165 -159 -92 -122 -159 -145 -109 -151 -217 -253 -441 -434 -37 -14 -82 -164 -23 -0 -0 -0 -0 -0 -0 -0 -0
-0 -0 -0 -13 -1 -0 -0 -0 -0 -0 -0 -0 -0 -0 -0 -0 -0 -1 -42 -76 -103 -129 -131 -180 -133 -99 -112 -110 -165 -183 -207 -203 -244 -270 -298 -328 -0 -0 -0 -0 -0 -0 -0 -0 -0 -0 -0 -0 -0
-0 -1 -0 -0 -0 -2 -0 -0 -0 -0 -0 -0 -0 -0 -0 -0 -43 -105 -144 -142 -168 -114 -86 -104 -61 -64 -128 -187 -214 -250 -242 -249 -257 -0 -0 -0 -0 -0 -0 -0 -0 -0 -0 -0 -0 -0 -0 -0 -0
-0 -0 -0 -1 -3 -0 -0 -0 -0 -0 -0 -0 -0 -11 -33 -57 -158 -195 -122 -76 -49 -59 -49 -50 -92 -135 -166 -212 -268 -277 -28 -0 -0 -0 -0 -0 -0 -0 -0 -0 -0 -0 -0 -0 -0 -0 -0 -0 -0
-0 -39 -0 -0 -1 -5 -1 -1 -0 -1 -3 -100 -20 -88 -259 -166 -93 -72 -60 -79 -86 -90 -94 -106 -131 -172 -206 -228 -247 -284 -0 -0 -0 -0 -0 -0 -0 -0 -0 -0 -0 -0 -0 -0 -0 -0 -0 -0 -0
Wind_Speed
13 14 9 7 9 10 19 21 20 3 6 4 6 7 8 17 12 6 14 8 23 22 21 19 17 18 18 17 17 16 16 15 15 16 15 15 14 14 13 11 12 12 12 11 10 10 9 9 10
13 7 8 8 12 17 15 21 23 7 4 8 6 9 11 11 16 10 12 14 22 21 19 19 16 17 17 18 17 17 17 16 15 15 15 14 13 13 13 12 11 12 11 10 10 9 9 9 8
13 11 10 10 17 20 19 20 19 14 6 6 5 2 5 5 8 6 15 17 22 20 19 18 17 17 17 18 17 17 17 16 16 16 15 14 12 12 11 10 11 12 11 11 9 8 8 8 8
7 7 9 16 23 24 26 23 8 6 14 7 10 5 6 6 6 6 14 18 19 18 19 20 17 18 17 18 17 16 16 16 16 15 14 14 12 11 10 9 9 9 10 10 10 9 8 8 8
9 9 14 19 27 26 21 18 18 7 13 13 15 14 6 10 6 10 16 17 18 18 18 18 16 17 17 17 17 17 16 16 16 15 14 14 13 12 11 10 10 10 9 9 10 10 9 8 8
10 10 15 18 26 23 24 24 17 16 13 11 11 10 9 15 8 12 16 17 18 18 18 19 16 16 16 16 16 15 15 16 15 15 15 14 13 12 12 11 10 10 10 10 10 9 9 8 8
18 15 19 23 22 21 20 22 18 19 20 17 9 14 11 13 11 15 16 17 17 18 18 18 18 16 15 14 16 15 16 16 16 15 15 14 13 12 11 10 9 9 9 8 8 9 9 8 8
15 16 26 22 21 25 18 10 10 20 20 17 12 8 12 8 14 15 17 18 18 18 19 19 18 17 16 14 13 15 14 14 13 13 13 13 12 10 9 8 8 8 7 7 7 8 8 8 8
17 18 21 27 25 19 16 12 10 11 16 16 8 15 3 8 12 15 17 17 17 17 19 19 19 18 17 16 14 12 12 12 11 11 11 10 10 11 12 11 12 8 8 8 8 7 7 7 9
22 18 30 22 21 21 14 13 14 15 13 14 15 16 13 6 12 16 17 17 19 20 20 19 18 18 17 14 15 14 13 11 11 11 12 10 10 10 11 10 12 10 8 8 8 8 8 8 10
26 29 21 23 23 19 18 17 10 10 17 17 17 17 12 14 14 17 19 19 20 19 16 20 17 15 17 14 11 9 8 9 9 13 12 10 8 8 8 7 8 8 10 8 10 10 9 12 10
29 29 26 28 25 17 21 16 17 18 14 11 13 16 3 13 15 16 19 19 20 19 16 17 18 15 13 11 11 11 9 9 8 10 12 8 7 7 7 7 8 8 8 9 10 8 9 11 12
31 29 26 23 25 26 17 22 23 22 19 17 11 10 11 10 15 15 16 18 20 18 17 16 16 13 10 9 11 10 10 10 11 11 12 10 9 7 7 6 6 6 7 9 8 7 7 7 7
25 26 26 28 23 20 25 23 22 22 17 19 21 17 16 14 13 17 18 19 18 19 17 16 17 14 12 10 9 8 7 10 9 9 11 13 8 6 6 6 6 6 4 5 6 4 5 7 8
24 27 24 25 29 26 20 29 33 21 18 21 19 18 18 17 14 18 19 17 20 17 17 17 17 16 14 12 9 9 9 9 9 8 9 12 9 6 6 6 6 5 1 1 4 6 6 6 8
16 25 27 29 25 27 24 34 25 25 24 23 22 21 21 21 17 18 18 15 16 18 19 17 15 18 15 12 9 9 6 8 7 8 4 10 9 9 6 4 6 9 7 6 6 5 5 4 3
26 26 34 28 30 24 30 35 26 20 29 26 24 22 21 22 19 16 21 16 19 18 19 17 17 17 14 13 8 10 5 7 4 2 4 13 9 5 4 3 6 10 8 9 8 9 8 8 6
30 33 29 28 27 29 30 32 25 23 19 26 26 24 24 24 22 18 17 20 13 17 15 16 14 12 14 8 7 6 7 7 0 1 4 4 5 5 7 7 8 9 8 8 5 8 3 7 10
31 29 26 24 26 30 27 27 27 25 22 24 22 24 25 26 23 21 18 19 17 17 15 16 15 12 11 8 8 8 9 8 5 5 7 10 8 9 9 8 9 9 8 4 7 2 3 3 5
34 30 31 17 18 26 27 28 26 27 24 21 22 22 25 25 25 23 22 19 17 16 15 14 12 8 11 9 8 6 7 5 7 7 8 8 10 9 9 10 9 10 8 7 6 6 2 5 5
33 33 30 27 13 22 18 21 25 28 27 21 21 21 24 25 26 24 23 20 19 17 16 15 15 11 9 11 8 6 8 6 7 9 6 8 8 8 8 9 8 8 6 6 6 4 6 6 3
32 30 31 29 23 18 22 19 24 27 28 26 22 22 21 24 26 25 24 21 18 18 17 17 16 11 13 12 8 11 9 9 7 7 6 6 7 9 7 9 8 8 5 6 4 4 3 1 6
29 27 27 29 26 23 22 20 19 28 27 28 28 26 23 22 23 25 23 22 20 18 17 15 16 13 14 12 10 11 9 5 7 5 9 9 8 9 8 5 8 5 5 4 3 1 2 1 4
17 26 28 24 22 24 25 23 22 23 32 30 28 28 25 22 23 24 24 21 19 15 16 15 15 14 13 10 12 10 9 11 9 7 7 5 3 5 6 7 5 3 4 5 4 2 1 3 4
23 23 13 13 20 17 27 24 21 30 26 28 28 29 26 24 23 22 23 23 19 17 15 13 14 13 12 14 14 13 15 19 17 13 10 11 2 4 5 7 7 5 4 4 2 1 3 4 4
30 25 15 24 18 24 27 31 24 26 17 25 25 25 24 24 22 23 21 19 16 15 15 15 16 16 15 16 14 14 15 11 11 11 10 13 2 2 2 4 5 4 4 2 2 5 4 2 5
24 25 21 18 20 22 26 26 28 25 8 12 19 26 25 24 23 19 22 18 17 15 16 16 16 16 15 18 15 12 9 8 9 11 10 8 12 5 5 4 4 4 2 3 4 5 5 3 6
28 26 20 13 10 17 26 35 21 29 25 17 15 21 24 21 21 19 17 19 16 17 18 18 16 18 18 16 13 11 12 12 12 11 11 10 6 6 4 4 3 2 1 3 5 6 5 5 6
20 25 21 18 12 4 19 22 21 28 23 21 20 22 18 16 15 14 16 18 19 16 17 16 18 17 15 15 15 15 13 12 11 12 11 10 8 6 5 3 2 1 3 4 6 7 8 6 8
23 12 27 17 24 14 14 12 25 21 20 22 23 19 17 15 13 15 18 18 18 17 17 17 17 16 16 16 16 15 14 13 12 11 11 9 7 4 4 3 2 4 4 5 6 8 8 8 8
Wind_Direction
259 235 246 256 244 232 251 242 257 101 203 228 23 255 306 327 40 42 120 121 131 138 150 155 143 143 144 146 147 145 146 146 146 145 145 146 148 147 143 134 127 128 131 134 136 138 140 144 147
274 238 238 264 238 243 235 250 264 222 211 117 228 231 241 255 68 106 127 140 135 138 148 154 144 143 143 144 147 147 147 147 147 145 145 147 149 148 147 138 133 133 136 139 142 144 147 151 155
247 235 252 228 233 241 250 233 216 179 181 191 260 265 349 292 74 117 89 143 133 143 156 141 144 143 146 144 147 147 146 147 147 145 148 150 150 150 147 142 141 143 146 148 149 151 154 158 163
217 209 247 256 247 232 250 266 308 193 244 177 254 286 162 28 3 91 135 147 135 146 157 137 146 144 145 146 145 145 147 148 146 148 151 150 149 147 145 143 144 152 153 155 155 157 164 169 174
234 252 233 229 243 257 268 252 288 259 243 230 221 233 207 128 71 115 149 146 151 154 135 153 145 142 145 144 144 146 150 150 149 151 152 153 153 152 153 155 160 165 165 164 165 170 174 178 184
223 237 237 237 244 237 240 257 242 254 245 227 227 252 260 96 154 147 158 155 156 153 138 148 145 142 144 144 146 149 152 149 152 154 155 158 160 161 161 164 168 172 174 176 177 179 183 184 190
236 225 241 248 258 255 236 225 221 242 241 228 212 248 236 152 174 158 163 160 157 149 153 157 163 150 142 145 150 154 155 156 159 160 161 163 165 166 168 171 174 178 181 182 182 186 192 194 202
234 248 253 243 249 256 254 252 206 223 253 251 257 236 239 214 131 160 170 162 161 152 157 163 162 165 167 161 154 155 159 159 162 163 163 165 168 173 177 171 181 184 185 188 194 200 202 205 206
226 245 240 239 244 251 252 253 202 240 251 232 169 231 115 108 162 172 175 169 166 161 157 165 164 167 174 165 161 158 161 159 157 163 163 158 190 185 177 203 155 181 190 196 204 211 218 220 224
225 230 240 243 250 252 247 220 255 205 230 234 215 217 239 195 205 192 185 179 173 172 163 166 164 171 179 165 156 178 173 179 184 184 177 196 203 185 211 183 163 176 197 207 212 215 220 231 239
219 238 246 242 258 266 266 243 218 237 233 219 206 219 202 228 203 209 195 190 175 176 169 166 162 175 183 170 160 181 175 178 188 186 176 212 200 183 216 174 181 199 198 214 200 201 222 223 237
230 237 245 267 272 228 264 262 248 228 242 250 216 203 162 221 207 219 205 195 170 172 173 162 164 177 198 168 168 186 181 186 191 190 181 203 220 190 217 223 184 197 198 222 206 212 217 234 234
231 239 244 250 249 258 237 242 249 245 217 252 247 149 210 236 217 222 228 215 161 171 176 168 164 178 196 189 172 199 191 186 195 180 187 210 207 201 206 239 257 210 221 193 244 241 208 228 262
235 239 246 243 254 243 250 244 238 235 240 219 237 208 214 227 227 211 220 216 163 166 175 172 175 178 187 202 176 199 201 169 206 198 188 208 211 194 211 215 216 251 263 294 333 248 260 224 251
260 258 245 240 234 234 245 248 238 236 216 229 218 224 226 220 210 223 204 198 167 164 173 176 182 177 185 204 191 195 192 222 201 214 185 194 215 214 235 212 221 228 248 241 291 323 341 332 345
248 249 242 232 228 233 220 250 233 226 222 214 223 222 218 223 213 229 190 184 158 179 171 180 186 177 182 196 177 211 197 209 202 194 164 194 198 237 205 268 33 34 59 37 358 340 338 326 336
238 238 232 242 224 217 217 241 242 236 210 222 218 220 217 209 208 208 200 161 179 188 166 181 187 180 170 201 200 213 154 213 237 157 185 179 204 182 210 25 66 69 63 61 45 31 23 345 341
223 227 235 242 222 215 221 235 243 211 220 211 218 216 214 211 205 193 228 187 198 172 179 177 182 180 158 202 157 180 223 205 11 109 86 126 162 168 144 113 104 118 98 80 45 37 4 357 327
240 235 240 230 250 220 218 237 224 240 216 212 215 210 210 208 204 191 196 213 186 173 195 176 183 156 160 179 172 193 199 193 177 84 117 120 131 141 142 127 124 113 112 143 107 67 261 81 289
248 248 258 258 233 236 213 222 247 219 220 222 216 210 208 202 205 193 186 193 197 176 183 177 159 179 166 169 190 193 185 157 123 136 142 146 153 160 140 145 147 139 140 147 176 185 159 221 217
231 237 242 249 245 239 219 238 222 238 226 214 226 209 207 202 198 198 188 187 182 181 180 163 167 170 167 168 197 151 159 163 135 152 149 154 157 159 169 156 153 158 198 186 190 118 270 287 282
238 229 236 247 244 225 210 235 220 222 223 219 218 207 203 198 198 198 191 178 190 184 177 165 157 172 171 181 177 166 173 176 149 156 134 152 168 160 154 150 153 168 173 152 175 241 268 355 300
249 237 230 232 242 242 210 223 255 200 217 212 211 204 198 196 196 196 183 191 188 183 165 164 153 173 169 166 173 173 189 154 119 107 128 163 140 147 146 168 170 137 204 83 110 155 10 340 284
256 240 246 229 231 231 222 218 222 235 206 210 207 207 197 199 195 197 186 189 189 172 161 145 152 163 163 162 176 181 169 136 109 98 90 43 56 73 89 95 97 111 124 141 136 125 236 322 317
213 228 218 225 220 224 210 228 218 200 204 207 208 202 204 203 198 189 184 188 162 151 139 135 138 129 137 98 93 108 118 114 113 127 124 70 155 126 159 135 157 144 106 117 107 204 264 237 275
212 216 219 197 203 206 222 213 216 232 294 188 203 200 190 195 191 187 173 129 137 123 142 137 133 131 129 121 120 123 128 132 134 145 125 118 132 18 6 101 111 128 136 155 186 230 245 274 273
222 217 211 267 231 211 209 229 225 209 220 180 194 176 188 187 187 159 125 139 128 149 151 140 138 133 128 129 129 129 131 131 115 108 107 102 123 154 216 108 98 95 65 358 341 275 291 300 283
237 200 210 228 231 237 209 201 217 211 179 188 214 169 176 168 111 117 136 130 152 159 145 146 146 146 135 132 127 125 117 115 112 110 105 116 95 101 158 123 111 86 22 320 321 321 312 315 299
208 226 196 237 211 212 218 188 196 186 191 167 195 130 117 100 116 131 130 148 145 140 139 137 135 131 131 122 120 123 121 117 115 110 109 112 107 157 144 134 181 286 310 325 323 309 284 302 301
222 208 238 202 227 230 270 201 194 173 150 177 108 113 112 114 127 131 135 132 139 134 139 136 133 128 123 123 119 120 119 115 109 111 110 124 135 132 109 69 302 307 327 320 308 302 317 315 321